Weather at Frölunda Airfield

Public forecast

Using degrees Celsius for public forecast. Weather courtesy of forecast.io.

Closest aviation weather report (METAR) to Frölunda Airfield

Closest report is Stockholm-Bromma Airport, 9.4 nm (17.5 km) SE. Retrieved 2022/08/09 07:20 UTC (27 minutes ago):

ESSB 090720Z VRB01KT CAVOK 21/13 Q1027

Closest aviation forecast (TAF) to Frölunda Airfield

Forecast is more than 12 hours old.

Closest forecast is Stockholm-Bromma Airport, 9.4 nm (17.5 km) SE. Retrieved 2017/03/27 06:35 UTC (5 years ago):

TAF ESSB 270530Z 2706/2724 27008KT CAVOK BECMG 2710/2713 29015G25KT